Wind_Speed
10 9 8 8 8 7 6 4 5 5 4 5 7 8 8 9 10 12 13 14 15 15 16 17 18 18 19 19 19 20 20 20 20 21 22 22 22 21 22 22 22 22 22 22 21 21 20 19 19
11 9 9 9 8 7 5 4 5 5 6 7 9 10 10 11 12 13 15 16 17 17 18 18 19 19 20 20 20 21 22 23 23 24 25 25 25 25 24 24 24 24 24 24 23 23 22 21 20
11 10 10 9 8 8 6 6 6 6 8 9 10 11 11 12 12 14 16 17 18 18 18 19 19 19 20 20 21 22 23 24 25 26 26 26 26 26 25 25 25 25 26 25 25 24 23 23 21
12 12 11 11 10 10 10 9 9 9 9 10 11 11 12 13 14 15 17 18 18 18 19 19 19 19 20 20 20 20 21 22 24 25 25 25 26 26 26 26 26 26 27 27 27 26 25 24 23
14 13 12 11 12 11 11 11 11 10 10 11 12 11 12 14 15 16 17 18 18 18 18 18 18 18 18 18 18 18 19 20 21 22 23 24 25 24 25 25 26 26 27 27 27 27 27 26 25
15 14 13 12 12 11 10 11 12 11 11 12 13 13 13 15 16 16 17 17 17 17 17 16 16 16 16 16 17 17 17 18 18 20 21 22 24 25 25 25 27 27 28 28 28 28 28 27 26
16 15 14 14 14 13 12 11 12 13 12 12 14 14 13 15 16 16 16 16 16 16 15 14 14 15 15 16 16 17 17 18 18 18 19 20 22 23 24 26 27 28 28 29 29 29 29 28 27
18 17 16 15 14 14 12 11 11 12 12 12 14 16 14 15 15 15 15 15 14 14 14 14 13 13 14 15 15 16 17 17 18 18 19 19 20 21 22 24 27 29 29 29 29 29 29 29 28
20 18 16 15 15 14 12 12 11 11 12 13 14 16 15 14 14 14 13 13 13 13 13 13 13 14 14 14 15 16 17 18 18 18 19 19 20 20 21 22 24 25 27 28 29 30 29 29 28
21 20 17 15 15 13 12 11 11 12 13 14 14 14 14 14 14 13 12 11 11 11 12 12 13 14 14 15 15 16 17 18 18 18 19 19 20 20 20 21 21 23 24 26 27 29 29 28 27
22 20 19 18 17 14 13 12 12 12 14 14 14 12 12 13 13 12 11 11 10 11 11 12 13 13 14 15 16 17 18 18 19 19 19 19 19 19 20 20 20 20 21 23 24 26 27 27 26
23 21 21 20 17 14 12 12 12 13 13 13 13 12 12 13 12 11 10 10 10 10 11 11 12 13 14 15 16 17 18 19 19 20 19 19 19 19 18 19 19 19 19 20 21 23 25 27 25
20 19 20 18 16 13 12 12 12 13 13 13 13 13 13 12 11 10 10 9 9 10 10 11 12 13 14 16 17 18 19 19 20 20 20 20 19 19 18 18 18 18 18 18 19 20 22 25 26
20 19 17 17 15 13 13 13 13 12 12 12 12 12 12 12 11 10 9 9 9 9 10 11 12 14 15 16 17 18 19 20 20 20 20 20 19 18 17 16 16 16 16 17 18 18 19 21 24
20 18 16 15 15 15 14 14 13 13 12 12 12 11 11 11 11 10 9 9 9 9 10 11 12 13 15 16 17 18 19 20 21 21 20 20 18 17 16 14 14 14 14 14 16 17 18 19 21
18 17 15 14 14 13 13 14 13 12 12 12 13 12 11 11 10 9 9 9 9 9 10 11 12 14 15 16 17 18 19 20 21 21 20 19 18 16 15 13 12 11 12 12 14 15 15 18 20
15 15 13 12 11 12 12 14 14 13 12 13 12 12 12 10 10 9 9 9 9 9 10 11 12 14 15 16 17 18 19 20 20 21 20 19 18 16 14 12 11 10 10 10 11 13 14 16 19
14 14 12 12 10 10 12 14 14 12 13 13 13 13 12 11 9 9 9 8 8 9 10 11 12 13 15 16 17 18 19 19 20 20 20 19 18 16 14 13 11 9 8 9 9 11 13 14 17
12 11 10 12 11 10 12 13 13 14 13 12 12 13 12 11 10 9 9 8 8 9 10 11 12 14 15 16 17 18 18 19 19 20 20 19 18 16 15 13 11 9 7 7 7 9 11 13 15
10 10 12 14 11 10 11 12 13 13 12 12 12 12 12 11 10 9 9 9 8 9 10 11 12 13 15 16 17 17 18 18 19 19 19 18 17 16 15 13 11 8 6 5 4 6 9 11 13
12 11 12 12 9 9 10 9 11 12 12 12 12 12 12 11 10 9 9 9 9 9 10 11 12 13 14 15 16 17 17 18 18 18 18 18 17 16 15 13 11 8 6 4 3 3 6 9 12
13 12 10 9 8 8 8 8 10 13 13 12 12 12 12 11 11 10 9 9 9 10 10 10 11 13 14 15 16 17 17 17 17 17 17 17 16 15 14 13 11 9 6 4 3 1 4 7 10
12 9 8 7 7 7 7 8 10 14 15 13 12 11 11 11 11 11 10 10 9 9 9 10 11 12 13 14 15 16 16 16 16 16 16 16 16 15 14 13 12 10 7 6 4 2 2 5 7
9 7 6 5 5 6 7 10 9 14 16 16 14 12 11 11 11 11 11 10 10 9 9 9 10 12 13 14 15 15 15 15 15 15 15 15 15 14 13 13 12 11 8 6 5 3 1 2 4
7 6 5 4 5 6 7 11 11 15 15 15 14 13 12 12 11 11 11 11 10 9 9 9 10 11 12 13 14 15 15 15 14 14 14 14 14 13 13 12 12 11 9 7 5 4 3 1 2
6 6 6 7 8 8 8 9 14 18 16 15 14 13 13 12 12 12 12 12 11 10 10 10 10 11 12 13 14 14 14 14 13 13 13 14 13 13 12 12 11 10 9 8 6 5 4 2 0
7 7 8 10 9 7 6 8 16 19 17 15 14 14 13 13 13 13 12 12 11 11 10 10 10 10 11 12 13 13 13 13 13 13 13 13 12 12 12 11 11 10 9 8 7 6 5 4 3
8 9 10 10 10 9 8 9 14 19 19 18 16 15 14 14 14 13 13 13 12 12 11 10 10 10 11 11 12 13 13 12 12 12 12 12 12 12 11 11 10 10 9 8 7 6 6 5 4
9 10 11 11 10 10 12 12 19 21 20 19 18 16 15 15 15 15 14 13 13 12 12 11 10 10 10 11 11 12 12 12 12 12 12 12 12 12 11 10 10 9 8 8 7 6 6 5 4
12 12 13 14 13 14 16 16 20 21 20 19 19 18 17 16 16 15 15 15 14 13 13 12 11 10 10 10 10 11 11 12 12 11 12 12 12 12 11 10 10 9 8 7 7 6 6 5 5
Wind_Direction
267 276 287 296 306 302 292 281 276 277 279 280 277 275 281 287 292 295 297 298 299 300 299 297 294 291 289 287 284 284 280 277 275 272 270 265 260 257 254 253 252 251 249 247 246 245 245 246 247
263 271 278 286 296 301 290 282 282 285 289 288 282 281 286 286 289 295 298 301 302 303 301 299 296 293 290 287 283 282 279 276 274 273 273 269 265 260 257 253 251 251 249 248 246 245 245 245 246
261 268 275 278 282 293 289 284 287 290 292 292 286 286 288 288 291 297 300 302 303 304 302 299 297 296 293 289 285 283 281 278 275 274 274 271 267 263 260 257 252 251 250 249 248 246 245 245 245
261 265 271 270 272 275 280 285 287 286 288 289 290 293 290 291 295 298 300 302 303 303 303 302 302 301 298 295 293 291 288 283 281 278 275 270 268 266 262 260 256 253 251 250 249 247 245 245 245
259 260 265 267 266 269 273 276 284 284 288 290 293 298 294 294 297 300 302 303 304 305 307 307 308 308 306 305 304 301 296 291 288 284 279 273 271 267 264 261 259 256 253 252 250 247 246 244 244
251 254 258 260 261 261 266 275 281 279 286 292 296 300 297 297 300 302 303 306 307 309 312 313 314 315 314 313 312 309 308 305 300 294 287 281 276 273 269 263 261 258 256 253 251 248 246 242 243
246 247 251 254 258 259 265 275 281 284 288 296 299 306 306 304 304 303 304 306 309 313 315 317 318 319 320 321 318 316 314 311 308 303 296 288 282 278 273 267 264 260 258 255 252 249 245 242 241
242 246 250 255 258 257 258 269 279 286 294 299 303 308 310 307 305 304 305 309 313 317 319 322 324 325 325 325 325 324 321 318 314 310 304 296 288 282 277 271 266 263 259 256 253 249 246 243 240
241 245 250 250 254 259 259 267 278 289 297 301 304 308 309 308 307 307 309 313 317 320 324 327 331 332 331 331 329 328 327 323 319 315 309 302 295 289 282 277 271 265 260 257 254 250 246 244 238
238 241 246 251 254 259 263 272 284 292 296 300 303 308 307 309 309 308 310 315 319 323 327 330 333 333 334 335 335 333 330 327 323 318 313 307 300 294 287 280 275 269 262 258 254 251 247 243 237
235 240 243 251 259 264 270 277 286 296 299 302 305 307 306 310 310 311 314 318 321 326 329 332 334 336 337 338 337 335 333 331 328 324 318 312 306 298 290 283 277 272 265 259 253 248 244 240 235
233 238 241 250 259 265 273 279 287 293 301 302 308 308 308 312 312 313 315 319 323 328 332 334 336 338 339 339 338 337 336 334 332 328 323 317 311 305 294 284 278 274 268 261 254 246 241 238 234
231 238 241 246 253 260 268 278 285 289 297 303 306 307 312 312 311 312 314 319 323 329 332 334 336 337 337 338 339 339 338 336 334 332 328 323 316 309 300 289 281 275 268 260 254 246 241 238 234
229 234 239 246 255 260 268 278 287 287 294 300 304 303 308 309 309 309 312 316 322 328 331 332 335 336 337 338 339 339 339 338 336 334 331 328 323 316 308 295 284 276 269 263 254 245 239 236 233
226 233 244 255 262 264 271 278 285 289 293 301 303 302 303 307 306 305 309 314 320 325 328 331 335 337 338 339 340 340 341 340 338 336 333 330 328 324 315 304 290 279 272 265 255 247 238 231 231
222 231 241 248 255 262 271 280 285 292 299 305 304 301 303 306 305 303 305 311 317 322 326 330 334 336 338 339 339 340 342 342 342 340 338 336 334 330 323 314 301 286 275 266 255 246 238 230 229
220 228 240 246 250 262 273 283 290 298 299 302 304 303 303 303 300 298 302 307 314 319 323 329 333 335 337 338 339 340 342 343 344 343 342 341 341 338 332 324 312 296 283 271 256 245 235 230 226
215 222 231 253 264 271 278 284 291 296 299 302 304 303 304 302 294 293 297 302 309 314 319 327 332 335 337 337 338 340 342 344 346 346 346 346 346 344 338 331 322 309 292 279 261 245 233 230 225
210 222 236 256 265 277 284 288 292 298 298 299 301 300 301 300 294 287 291 298 304 311 316 323 330 334 336 338 338 339 341 344 346 348 349 349 349 348 346 339 332 323 305 291 272 251 233 225 221
212 220 242 254 266 279 286 292 293 297 301 302 304 302 298 294 288 286 286 292 299 308 313 321 328 332 334 337 338 339 341 344 347 349 351 351 352 352 352 348 342 335 322 305 277 252 231 222 219
212 230 243 257 277 282 287 296 304 302 307 308 304 299 296 290 283 281 284 289 296 305 311 318 325 330 332 335 338 340 341 344 347 350 353 354 354 355 357 357 353 347 339 326 300 253 226 216 215
215 230 248 265 276 294 302 311 314 309 310 306 301 297 294 290 284 281 281 287 293 302 308 316 323 328 331 334 337 340 342 344 347 350 353 356 357 358 1 4 5 1 355 351 342 275 211 208 213
221 236 253 272 288 309 314 316 312 308 308 306 301 295 291 286 281 278 278 282 288 297 305 312 321 327 330 334 337 339 341 344 347 350 353 356 359 2 4 8 12 13 11 7 3 17 174 193 206
232 245 261 282 304 319 309 310 308 296 304 309 305 296 291 286 279 277 277 280 285 293 300 308 317 324 329 334 336 338 340 343 346 349 353 356 359 3 7 10 14 18 19 21 24 39 84 181 206
244 254 266 282 288 296 310 315 299 291 303 305 300 295 291 285 279 277 276 277 282 287 293 302 312 320 327 333 335 337 339 342 344 348 352 356 359 3 8 12 15 20 22 25 33 40 47 109 205
247 256 268 283 289 314 325 310 294 299 305 303 297 292 288 282 276 274 274 274 277 282 286 294 306 317 326 332 335 337 339 341 344 347 351 356 360 3 7 12 16 21 25 27 31 32 37 48 155
257 256 264 278 288 300 303 300 299 302 309 306 299 294 288 282 275 273 272 272 273 277 281 287 299 313 323 330 335 339 341 342 344 347 350 353 358 2 6 10 15 19 22 25 28 30 28 23 15
272 275 277 280 281 284 283 292 281 294 309 308 301 294 289 283 277 272 271 270 270 273 276 281 292 306 317 326 333 338 341 342 344 347 350 352 354 357 1 6 9 12 16 20 22 23 21 17 6
288 280 281 283 285 287 284 280 285 294 300 299 297 293 289 284 278 273 270 269 268 269 271 275 285 298 310 319 328 334 338 341 343 346 348 351 352 354 356 359 3 6 8 10 11 12 15 13 5
292 288 285 283 280 275 276 286 289 295 296 295 293 291 288 283 278 272 270 268 266 265 266 270 278 289 301 312 321 329 335 340 342 345 347 349 351 353 355 356 358 360 2 2 2 3 4 3 1
Height
5874 5874 5874 5874 5874 5873 5872 5872 5872 5872 5873 5873 5873 5873 5873 5874 5874 5875 5872 5870 5870 5870 5869 5867 5866 5865 5864 5863 5862 5861 5861 5860 5860 5859 5859 5859 5858 5858 5859 5859 5859 5860 5861 5861 5862 5863 5864 5865 5866
5872 5873 5874 5874 5873 5872 5871 5871 5871 5872 5872 5872 5871 5871 5872 5872 5871 5870 5869 5868 5867 5867 5866 5864 5863 5862 5861 5860 5858 5857 5856 5856 5855 5854 5854 5854 5854 5854 5854 5855 5855 5856 5857 5858 5859 5860 5861 5862 5863
5871 5871 5873 5873 5872 5872 5870 5870 5870 5871 5870 5870 5870 5870 5870 5870 5869 5868 5866 5865 5865 5864 5862 5861 5859 5858 5857 5855 5854 5853 5852 5851 5850 5849 5849 5849 5849 5849 5849 5850 5850 5851 5852 5853 5854 5856 5857 5858 5860
5869 5870 5871 5872 5871 5870 5869 5869 5869 5869 5869 5869 5868 5869 5868 5867 5867 5866 5864 5863 5862 5861 5859 5857 5856 5854 5853 5851 5850 5849 5847 5846 5845 5844 5844 5843 5843 5843 5844 5844 5845 5846 5847 5849 5850 5851 5853 5854 5856
5867 5868 5869 5869 5869 5868 5868 5868 5868 5867 5868 5867 5867 5867 5866 5865 5864 5863 5861 5860 5859 5858 5856 5854 5853 5851 5849 5848 5846 5845 5843 5842 5840 5839 5838 5838 5838 5838 5838 5839 5840 5841 5842 5844 5845 5846 5848 5850 5852
5865 5866 5867 5866 5866 5866 5866 5866 5866 5866 5866 5866 5865 5865 5864 5863 5862 5860 5859 5858 5856 5855 5854 5852 5850 5848 5847 5845 5843 5841 5839 5838 5836 5835 5834 5833 5833 5833 5833 5833 5834 5835 5837 5838 5840 5841 5843 5845 5847
5862 5863 5863 5863 5863 5863 5864 5864 5864 5864 5864 5864 5863 5863 5862 5860 5859 5858 5856 5855 5854 5852 5851 5849 5848 5846 5844 5842 5840 5838 5836 5834 5833 5831 5830 5828 5828 5827 5827 5827 5828 5829 5830 5832 5833 5835 5838 5840 5842
5858 5861 5860 5860 5860 5860 5861 5862 5862 5862 5862 5862 5861 5860 5860 5859 5857 5855 5854 5853 5851 5850 5848 5847 5846 5844 5842 5840 5838 5835 5833 5831 5829 5827 5826 5824 5823 5822 5821 5822 5822 5823 5824 5825 5827 5829 5832 5835 5837
5855 5858 5857 5857 5857 5858 5859 5860 5860 5860 5860 5860 5859 5859 5858 5856 5855 5853 5852 5851 5849 5848 5846 5845 5843 5842 5840 5838 5836 5833 5831 5829 5826 5824 5822 5820 5819 5817 5816 5816 5816 5816 5817 5819 5821 5823 5826 5829 5832
5852 5853 5855 5854 5854 5855 5856 5857 5858 5859 5859 5858 5858 5857 5855 5854 5853 5852 5850 5849 5848 5846 5845 5843 5842 5840 5838 5836 5834 5831 5829 5826 5824 5821 5819 5816 5814 5813 5812 5811 5811 5811 5811 5813 5815 5817 5820 5823 5826
5847 5849 5851 5852 5852 5853 5854 5855 5856 5857 5857 5857 5856 5855 5854 5852 5851 5850 5848 5847 5846 5845 5843 5842 5840 5838 5837 5834 5832 5830 5827 5824 5821 5818 5815 5813 5810 5808 5807 5806 5806 5805 5806 5807 5809 5811 5814 5817 5821
5843 5845 5847 5849 5851 5852 5853 5854 5855 5855 5855 5854 5853 5853 5852 5850 5849 5848 5847 5846 5845 5843 5842 5841 5839 5837 5835 5833 5831 5828 5825 5822 5819 5815 5812 5809 5806 5804 5802 5801 5800 5800 5801 5802 5803 5805 5809 5812 5815
5840 5843 5845 5847 5849 5850 5852 5852 5853 5853 5853 5852 5852 5851 5850 5849 5847 5846 5845 5844 5844 5842 5841 5839 5838 5836 5834 5832 5829 5826 5823 5820 5816 5813 5809 5806 5803 5800 5798 5796 5796 5796 5796 5797 5799 5801 5803 5806 5809
5837 5839 5842 5845 5847 5849 5850 5850 5851 5851 5851 5850 5850 5849 5848 5847 5846 5845 5844 5843 5842 5841 5840 5838 5837 5835 5833 5831 5828 5825 5822 5818 5814 5811 5807 5803 5799 5796 5794 5792 5791 5791 5792 5793 5794 5796 5799 5801 5805
5834 5837 5840 5843 5845 5846 5848 5848 5849 5848 5848 5848 5847 5847 5846 5845 5844 5843 5842 5842 5841 5840 5839 5838 5836 5834 5832 5829 5827 5824 5820 5816 5813 5809 5805 5801 5797 5793 5790 5789 5788 5787 5788 5788 5790 5792 5794 5797 5800
5831 5836 5838 5840 5842 5844 5847 5846 5846 5846 5845 5846 5846 5845 5844 5844 5843 5842 5841 5840 5840 5839 5838 5837 5835 5833 5831 5828 5826 5823 5819 5815 5811 5807 5803 5799 5795 5791 5788 5786 5785 5784 5784 5785 5786 5788 5790 5793 5796
5830 5834 5836 5838 5839 5841 5843 5844 5844 5844 5844 5844 5843 5843 5842 5842 5841 5840 5840 5839 5839 5838 5837 5836 5834 5832 5830 5828 5825 5822 5818 5814 5810 5806 5801 5797 5793 5790 5787 5784 5783 5782 5781 5782 5783 5785 5787 5790 5793
5830 5833 5834 5836 5836 5839 5841 5842 5842 5842 5842 5842 5841 5841 5840 5840 5839 5839 5838 5838 5837 5837 5836 5835 5833 5831 5829 5827 5824 5821 5817 5813 5809 5805 5800 5796 5792 5789 5786 5783 5781 5780 5779 5779 5780 5782 5784 5786 5790
5829 5832 5834 5835 5836 5838 5840 5840 5840 5840 5840 5840 5840 5839 5838 5838 5837 5837 5837 5837 5836 5835 5834 5833 5832 5830 5828 5826 5823 5820 5817 5813 5809 5805 5800 5796 5792 5788 5785 5782 5780 5778 5778 5778 5778 5779 5781 5784 5787
5827 5831 5833 5834 5835 5837 5838 5839 5839 5839 5838 5838 5838 5837 5836 5836 5836 5836 5836 5836 5835 5834 5833 5832 5831 5829 5827 5825 5822 5819 5816 5812 5808 5804 5800 5796 5792 5788 5785 5782 5780 5778 5776 5776 5776 5777 5779 5781 5785
5828 5830 5832 5833 5834 5836 5838 5838 5837 5837 5837 5836 5836 5835 5835 5834 5834 5835 5834 5834 5834 5833 5832 5831 5830 5828 5826 5824 5821 5819 5815 5812 5808 5804 5800 5796 5793 5789 5785 5782 5779 5777 5776 5775 5775 5776 5777 5780 5783
5828 5830 5832 5833 5835 5836 5837 5837 5837 5835 5835 5835 5835 5834 5833 5833 5832 5832 5833 5832 5832 5832 5831 5830 5828 5827 5825 5823 5821 5818 5815 5812 5808 5805 5801 5797 5793 5790 5786 5783 5780 5778 5777 5776 5775 5776 5777 5779 5781
5828 5830 5832 5833 5834 5835 5835 5836 5837 5834 5833 5833 5833 5832 5831 5831 5831 5831 5831 5831 5830 5830 5829 5828 5827 5826 5824 5822 5820 5817 5814 5811 5808 5805 5801 5798 5794 5791 5787 5784 5781 5779 5778 5777 5776 5776 5777 5778 5781
5828 5830 5832 5833 5834 5835 5835 5836 5836 5833 5832 5831 5830 5830 5829 5829 5829 5829 5829 5829 5829 5828 5828 5827 5826 5825 5823 5821 5819 5816 5814 5811 5808 5805 5802 5798 5795 5792 5788 5785 5783 5781 5779 5778 5777 5777 5777 5778 5780
5829 5830 5832 5832 5833 5834 5834 5834 5834 5831 5831 5830 5829 5828 5827 5827 5827 5827 5827 5827 5827 5827 5826 5826 5825 5824 5822 5820 5818 5816 5813 5810 5808 5805 5802 5799 5796 5793 5790 5787 5784 5782 5781 5779 5779 5778 5778 5779 5780
5828 5830 5832 5832 5832 5832 5833 5833 5832 5829 5828 5828 5827 5826 5825 5825 5824 5825 5825 5825 5825 5825 5825 5824 5824 5823 5821 5819 5817 5815 5812 5810 5808 5805 5802 5799 5797 5794 5791 5788 5786 5784 5782 5781 5780 5780 5780 5780 5780
5828 5829 5830 5830 5830 5831 5833 5832 5830 5826 5826 5825 5824 5823 5823 5822 5822 5822 5822 5823 5823 5823 5823 5823 5822 5821 5820 5818 5816 5814 5812 5810 5807 5805 5802 5800 5797 5795 5792 5790 5787 5786 5784 5783 5782 5781 5780 5780 5780
5828 5828 5828 5829 5829 5829 5830 5831 5828 5824 5824 5823 5822 5821 5820 5820 5820 5820 5820 5820 5821 5821 5821 5821 5820 5820 5819 5817 5815 5813 5811 5809 5807 5805 5802 5800 5798 5795 5793 5791 5789 5787 5785 5784 5783 5782 5781 5781 5781
5826 5827 5826 5826 5827 5827 5827 5829 5825 5823 5822 5820 5819 5818 5817 5817 5817 5817 5817 5817 5818 5818 5818 5819 5818 5818 5817 5816 5814 5813 5811 5809 5807 5804 5802 5800 5798 5796 5793 5791 5789 5788 5786 5785 5784 5783 5782 5781 5781
5824 5824 5824 5824 5824 5824 5823 5826 5821 5819 5818 5816 5816 5815 5814 5814 5814 5813 5814 5814 5815 5815 5816 5816 5816 5816 5815 5814 5813 5812 5810 5808 5806 5804 5802 5800 5798 5796 5794 5792 5790 5788 5787 5785 5784 5783 5782 5782 5781